Estación meteorológica de Cercs - La Baells (Berguedà, Cercs)

Consulta los datos en tiempo real de la estación meteorológica de Cercs - La Baells





Hora UTC 17:45
Temperatura 25.4 ºC
Humedad 57.2 %
Presión 1018.2 hPa
Pluja 0.0 mm
Velocidad viento 1.8 km/h
Dirección viento SE

Datos diarios 2026-09-01



Hora UTC (invierno +1h; verano +2h)
DADES NO VALIDADES
Temperatura (ºC) Humedad (%) Presión (hPa) Velocidad viento (km/h) Precipitación (mm)
Hora UTC Aire Humedad Presión Vel. Dir. Vel. Max Dir. Intent. máx 5 min.
00:05 20.6 79.0 1021.2 0.2 NE 0.2 NE 0.0
00:10 20.6 79.0 1021.2 0.2 NE 0.2 NE 0.0
00:15 20.6 79.0 1021.2 0.2 NE 0.2 NE 0.0
00:20 20.7 78.6 1021.2 1.2 SE 1.2 SE 0.0
00:25 20.7 78.5 1021.2 1.4 SSE 1.4 SSE 0.0
00:30 20.8 77.9 1021.2 1.7 SSE 1.7 SSE 0.0
00:35 20.8 77.8 1021.2 1.8 SSE 1.8 SSE 0.0
00:40 20.8 77.7 1021.2 2.2 SE 2.2 SE 0.0
00:45 20.9 77.7 1021.2 2.3 SE 2.3 SE 0.0
00:50 20.8 77.8 1021.2 1.8 SE 2.3 SE 0.0
00:55 20.8 77.8 1021.2 1.6 SE 2.3 SE 0.0
01:00 20.7 78.2 1021.2 2.2 SE 2.3 SE 0.0
01:05 20.7 78.2 1021.2 2.3 SE 2.3 SE 0.0
01:10 20.7 78.4 1021.2 1.7 SE 2.3 SE 0.0
01:15 20.7 78.4 1021.2 1.6 SE 2.3 SE 0.0
01:20 20.6 79.0 1021.2 0.4 ESE 2.3 SE 0.0
01:25 20.6 79.1 1021.2 0.1 E 2.3 SE 0.0
01:30 20.5 79.5 1021.2 0.0 NNE 2.3 SE 0.0
01:35 20.5 79.6 1021.2 0.0 N 2.3 SE 0.0
01:40 20.4 79.9 1021.2 0.0 SSW 2.3 SE 0.0
01:45 20.4 79.9 1021.2 0.0 WSW 2.3 SE 0.0
01:50 20.4 80.1 1021.2 0.2 SE 2.3 SE 0.0
01:55 20.4 80.1 1021.2 0.2 E 2.3 SE 0.0
01:55 20.4 80.1 1021.2 0.2 E 2.3 SE 0.0
01:55 20.4 80.1 1021.2 0.2 E 2.3 SE 0.0
02:15 20.3 80.5 1021.2 0.0 NE 2.3 SE 0.0
02:20 20.3 80.6 1021.2 0.1 WSW 2.3 SE 0.0
02:25 20.3 80.6 1021.2 0.1 WNW 2.3 SE 0.0
02:30 20.3 80.9 1021.2 0.1 WNW 2.3 SE 0.0
02:35 20.3 81.0 1021.2 0.0 WNW 2.3 SE 0.0
02:40 20.3 81.5 1021.2 0.2 NW 2.3 SE 0.0
02:45 20.3 81.6 1021.2 0.2 NW 2.3 SE 0.0
02:50 20.3 81.7 1020.4 0.2 WNW 2.3 SE 0.0
02:55 20.3 81.7 1020.2 0.1 WNW 2.3 SE 0.0
03:00 20.3 81.8 1020.2 0.2 W 2.3 SE 0.0
03:05 20.3 81.8 1020.2 0.2 W 2.3 SE 0.0
03:10 20.3 82.5 1020.2 0.2 W 2.3 SE 0.0
03:15 20.3 82.7 1020.2 0.2 WSW 2.3 SE 0.0
03:20 20.2 82.7 1020.2 0.2 WNW 2.3 SE 0.0
03:25 20.2 82.7 1020.2 0.2 WNW 2.3 SE 0.0
03:30 20.2 82.5 1020.2 0.2 NW 2.3 SE 0.0
03:35 20.3 82.5 1020.2 0.2 NW 2.3 SE 0.0
03:40 20.2 82.9 1020.2 0.2 NW 2.3 SE 0.0
03:45 20.2 83.0 1020.2 0.2 NW 2.3 SE 0.0
03:50 20.1 82.0 1020.2 0.1 NW 2.3 SE 0.0
03:55 20.1 81.8 1020.2 0.1 NW 2.3 SE 0.0
04:00 20.0 80.9 1020.2 0.0 SE 2.3 SE 0.0
04:05 20.0 80.7 1020.2 0.0 ESE 2.3 SE 0.0
04:10 19.7 80.7 1020.2 0.1 SE 2.3 SE 0.0
04:15 19.7 80.7 1020.2 0.1 SE 2.3 SE 0.0
04:20 19.4 81.8 1020.2 0.2 ESE 2.3 SE 0.0
04:25 19.3 82.1 1020.2 0.2 ESE 2.3 SE 0.0
04:30 19.0 84.8 1020.2 0.2 SW 2.3 SE 0.0
04:35 19.0 85.2 1020.2 0.2 WSW 2.3 SE 0.0
04:40 18.8 85.5 1020.2 0.1 SE 2.3 SE 0.0
04:45 18.8 85.6 1020.2 0.1 ESE 2.3 SE 0.0
04:50 18.7 86.5 1020.2 0.1 ENE 2.3 SE 0.0
04:55 18.7 86.7 1020.2 0.2 ENE 2.3 SE 0.0
05:00 18.6 86.9 1020.2 0.1 E 2.3 SE 0.0
05:05 18.5 86.9 1020.2 0.1 E 2.3 SE 0.0
05:10 18.4 86.7 1020.2 0.1 SSW 2.3 SE 0.0
05:15 18.4 86.7 1020.2 0.1 SW 2.3 SE 0.0
05:20 18.3 86.5 1020.2 0.2 ESE 2.3 SE 0.0
05:25 18.3 86.4 1020.2 0.2 ENE 2.3 SE 0.0
05:30 18.5 85.1 1020.2 0.2 E 2.3 SE 0.0
05:35 18.5 84.9 1020.2 0.2 E 2.3 SE 0.0
05:40 18.6 84.5 1020.2 0.2 SE 2.3 SE 0.0
05:45 18.6 84.4 1020.2 0.2 SE 2.3 SE 0.0
05:50 18.6 83.7 1020.2 0.2 ESE 2.3 SE 0.0
05:55 18.6 83.6 1020.2 0.2 ESE 2.3 SE 0.0
06:00 18.7 83.6 1020.2 0.2 ENE 2.3 SE 0.0
06:00 18.7 83.6 1020.2 0.2 ENE 2.3 SE 0.0
06:10 18.7 82.8 1020.2 0.2 ENE 2.3 SE 0.0
06:15 18.7 82.6 1020.2 0.2 ENE 2.3 SE 0.0
06:20 18.7 82.0 1020.2 0.1 ENE 2.3 SE 0.0
06:25 18.7 81.9 1020.2 0.1 ENE 2.3 SE 0.0
06:30 18.9 81.1 1020.2 0.1 SE 2.3 SE 0.0
06:35 18.9 80.9 1020.2 0.1 SE 2.3 SE 0.0
06:40 19.0 79.9 1020.2 0.1 ENE 2.3 SE 0.0
06:45 19.0 79.7 1020.2 0.1 ENE 2.3 SE 0.0
06:50 19.1 79.4 1020.2 0.1 ENE 2.3 SE 0.0
06:55 19.1 79.4 1020.2 0.1 ENE 2.3 SE 0.0
07:00 19.2 78.9 1020.2 0.1 WSW 2.3 SE 0.0
07:05 19.2 78.8 1020.2 0.1 WNW 2.3 SE 0.0
07:10 19.5 77.6 1020.2 0.1 SE 2.3 SE 0.0
07:15 19.5 77.4 1020.2 0.1 ESE 2.3 SE 0.0
07:20 20.2 75.6 1020.2 0.1 SSW 2.3 SE 0.0
07:25 20.4 75.2 1020.2 0.1 SW 2.3 SE 0.0
07:30 21.6 71.6 1020.2 0.2 WSW 2.3 SE 0.0
07:35 21.8 70.9 1020.2 0.2 WSW 2.3 SE 0.0
07:40 22.4 68.4 1020.2 0.2 WSW 2.3 SE 0.0
07:45 22.6 67.8 1020.2 0.2 WSW 2.3 SE 0.0
07:50 22.7 67.0 1020.2 0.2 SW 2.3 SE 0.0
07:55 22.7 66.8 1020.2 0.2 SW 2.3 SE 0.0
08:00 22.7 66.7 1020.2 0.2 SSW 2.3 SE 0.0
08:05 22.8 66.7 1020.2 0.3 SSW 2.3 SE 0.0
08:10 22.9 66.8 1020.2 0.2 SSW 2.3 SE 0.0
08:15 22.9 66.8 1020.2 0.2 SSW 2.3 SE 0.0
08:20 23.1 67.0 1020.2 0.2 S 2.3 SE 0.0
08:25 23.1 67.1 1020.2 0.2 SSE 2.3 SE 0.0
08:30 22.7 68.8 1020.2 0.0 SE 2.3 SE 0.0
08:35 22.6 69.1 1020.2 0.0 ESE 2.3 SE 0.0
08:40 22.2 71.2 1020.2 0.2 SSE 2.3 SE 0.0
08:45 22.1 71.8 1020.2 0.2 S 2.3 SE 0.0
08:50 23.2 66.9 1020.2 0.2 S 2.3 SE 0.0
08:55 23.4 66.0 1020.2 0.2 SSW 2.3 SE 0.0
09:00 24.1 62.8 1020.2 0.2 SSW 2.3 SE 0.0
09:05 24.2 62.0 1020.2 0.2 S 2.3 SE 0.0
09:10 24.5 60.9 1020.2 0.2 S 2.3 SE 0.0
09:15 24.6 60.7 1020.2 0.2 S 2.3 SE 0.0
09:20 24.8 59.8 1020.2 0.2 S 2.3 SE 0.0
09:25 24.9 59.6 1020.2 0.2 S 2.3 SE 0.0
09:30 24.7 60.0 1020.2 0.1 SSE 2.3 SE 0.0
09:35 24.7 60.1 1020.2 0.1 SSE 2.3 SE 0.0
09:40 24.9 59.4 1020.2 0.1 S 2.3 SE 0.0
09:45 25.0 59.3 1020.2 0.1 S 2.3 SE 0.0
09:50 25.7 57.1 1020.2 0.1 SSW 2.3 SE 0.0
09:55 25.9 56.6 1020.2 0.1 SSW 2.3 SE 0.0
10:00 26.2 55.4 1020.2 0.7 E 2.3 SE 0.0
10:05 26.3 55.1 1020.2 0.9 ENE 2.3 SE 0.0
10:10 25.8 56.7 1020.2 1.2 ENE 2.3 SE 0.0
10:15 25.7 57.0 1020.2 1.2 ENE 2.3 SE 0.0
10:20 25.7 57.7 1020.2 1.5 E 2.3 SE 0.0
10:25 25.7 57.9 1020.2 1.6 E 2.3 SE 0.0
10:30 25.8 57.4 1020.2 1.4 E 2.3 SE 0.0
10:35 25.8 57.3 1020.2 1.4 ENE 2.3 SE 0.0
10:40 25.8 57.7 1020.2 1.0 E 2.3 SE 0.0
10:45 25.8 57.8 1020.2 0.9 ESE 2.3 SE 0.0
10:50 25.3 59.8 1020.2 0.6 E 2.3 SE 0.0
10:55 25.2 60.2 1020.2 0.5 E 2.3 SE 0.0
11:00 25.3 60.3 1020.2 1.4 ESE 2.3 SE 0.0
11:05 25.3 60.4 1020.2 1.6 ESE 2.3 SE 0.0
11:10 26.0 58.0 1020.2 1.5 E 2.3 SE 0.0
11:15 26.1 57.5 1020.2 1.5 E 2.3 SE 0.0
11:20 26.1 56.3 1020.2 0.6 ESE 2.3 SE 0.0
11:25 26.1 56.1 1020.2 0.5 ESE 2.3 SE 0.0
11:30 26.2 55.6 1020.2 1.1 ESE 2.3 SE 0.0
11:35 26.3 55.5 1020.2 1.2 ESE 2.3 SE 0.0
11:40 26.2 55.4 1020.2 0.8 ESE 2.3 SE 0.0
11:45 26.2 55.3 1020.2 0.7 ESE 2.3 SE 0.0
11:50 26.6 53.9 1020.2 0.6 SE 2.3 SE 0.0
11:55 26.7 53.6 1020.2 0.5 SE 2.3 SE 0.0
12:00 27.0 52.3 1020.2 0.6 ESE 2.3 SE 0.0
12:05 27.0 52.1 1020.2 0.7 ESE 2.3 SE 0.0
12:10 27.6 50.7 1020.2 1.0 ESE 2.3 SE 0.0
12:15 27.7 50.4 1020.2 1.1 ESE 2.3 SE 0.0
12:20 27.5 49.9 1020.2 1.0 ESE 2.3 SE 0.0
12:25 27.5 49.8 1020.2 1.0 ESE 2.3 SE 0.0
12:30 27.5 49.1 1020.2 1.0 ESE 2.3 SE 0.0
12:35 27.5 48.9 1020.2 1.0 ESE 2.3 SE 0.0
12:40 26.7 51.1 1019.3 1.7 SE 2.3 SE 0.0
12:45 26.6 51.5 1019.2 1.8 SE 2.3 SE 0.0
12:50 26.8 51.3 1019.2 1.1 ESE 2.3 SE 0.0
12:55 26.9 51.3 1019.2 1.0 ESE 2.3 SE 0.0
13:00 27.6 49.1 1019.2 1.5 E 2.3 SE 0.0
13:05 27.8 48.7 1019.2 1.5 E 2.3 SE 0.0
13:10 26.9 50.4 1019.2 1.9 ESE 2.3 SE 0.0
13:15 26.7 50.7 1019.2 2.0 ESE 2.3 SE 0.0
13:20 27.0 50.2 1019.2 1.6 ESE 2.3 SE 0.0
13:25 27.1 50.1 1019.2 1.5 ESE 2.3 SE 0.0
13:30 27.0 49.6 1019.2 1.3 SE 2.3 SE 0.0
13:35 27.0 49.5 1019.2 1.3 SE 2.3 SE 0.0
13:40 27.2 48.8 1019.2 1.3 SE 2.3 SE 0.0
13:45 27.3 48.7 1019.2 1.3 SE 2.3 SE 0.0
13:50 27.4 48.4 1019.2 1.4 SSE 2.3 SE 0.0
13:55 27.5 48.3 1019.2 1.5 SSE 2.3 SE 0.0
14:00 27.8 47.4 1019.2 1.0 ESE 2.3 SE 0.0
14:05 27.8 47.2 1019.2 0.9 ESE 2.3 SE 0.0
14:10 28.3 46.6 1019.2 0.9 SE 2.3 SE 0.0
14:15 28.4 46.5 1019.2 0.9 SSE 2.3 SE 0.0
14:20 28.2 46.6 1019.2 1.3 SE 2.3 SE 0.0
14:25 28.2 46.6 1019.2 1.4 ESE 2.3 SE 0.0
14:30 28.5 46.4 1019.2 1.9 ESE 2.3 SE 0.0
14:35 28.5 46.3 1019.2 2.0 ESE 2.3 SE 0.0
14:40 28.0 47.7 1018.4 2.0 E 2.3 SE 0.0
14:45 27.9 48.0 1018.2 2.0 E 2.3 SE 0.0
14:50 27.6 49.1 1018.2 1.7 ESE 2.3 SE 0.0
14:55 27.5 49.4 1018.2 1.6 ESE 2.3 SE 0.0
15:00 28.2 47.9 1018.2 1.8 SE 2.3 SE 0.0
15:05 28.3 47.6 1018.2 1.8 SE 2.3 SE 0.0
15:10 28.3 47.6 1018.2 1.9 ESE 2.3 SE 0.0
15:15 28.3 47.5 1018.2 1.9 ESE 2.3 SE 0.0
15:20 28.0 48.3 1018.2 1.5 E 2.3 SE 0.0
15:25 28.0 48.5 1018.2 1.5 E 2.3 SE 0.0
15:30 28.4 47.7 1018.2 1.5 ESE 2.3 SE 0.0
15:35 28.6 47.5 1018.2 1.5 SE 2.3 SE 0.0
15:40 28.3 47.9 1018.2 1.7 SE 2.3 SE 0.0
15:45 28.3 47.9 1018.2 1.7 SE 2.3 SE 0.0
15:50 27.9 49.0 1018.2 2.3 ESE 2.3 SE 0.0
15:55 27.8 49.2 1018.2 2.4 ESE 2.4 ESE 0.0
16:00 27.2 50.9 1018.2 1.8 ESE 2.4 ESE 0.0
16:05 27.1 51.2 1018.2 1.7 ESE 2.4 ESE 0.0
16:10 26.8 52.2 1018.2 1.8 SE 2.4 ESE 0.0
16:15 26.8 52.4 1018.2 1.8 SE 2.4 ESE 0.0
16:20 26.8 52.1 1018.2 2.1 SE 2.4 ESE 0.0
16:25 26.9 52.1 1018.2 2.1 SE 2.4 ESE 0.0
16:30 26.8 52.3 1018.2 1.8 SE 2.4 ESE 0.0
16:35 26.8 52.4 1018.2 1.7 SE 2.4 ESE 0.0
16:40 27.1 51.4 1018.2 1.4 SSE 2.4 ESE 0.0
16:45 27.2 51.2 1018.2 1.4 SSE 2.4 ESE 0.0
16:50 26.9 52.1 1018.2 1.5 SE 2.4 ESE 0.0
16:55 26.8 52.3 1018.2 1.5 ESE 2.4 ESE 0.0
17:00 26.7 52.6 1018.2 1.6 ESE 2.4 ESE 0.0
17:05 26.6 52.7 1018.2 1.6 ESE 2.4 ESE 0.0
17:10 26.6 52.9 1018.2 1.9 SE 2.4 ESE 0.0
17:15 26.6 52.9 1018.2 2.0 SE 2.4 ESE 0.0
17:20 26.3 53.6 1018.2 1.9 SE 2.4 ESE 0.0
17:25 26.2 53.8 1018.2 1.9 SE 2.4 ESE 0.0
17:30 25.9 55.2 1018.2 1.7 SE 2.4 ESE 0.0
17:35 25.8 55.5 1018.2 1.7 SE 2.4 ESE 0.0
17:40 25.5 56.9 1018.2 1.7 SE 2.4 ESE 0.0
17:45 25.4 57.2 1018.2 1.8 SE 2.4 ESE 0.0
Máxima 28.6 86.9 1021.2 2.4 ESE 2.4 ESE 0.0
Mínima 18.3 46.3 1018.2
Total 0.0